Regional Weather Roundup
Issued by NWS Cleveland, OH

Home | Current Version | Previous Version | Text Only | Print | Product List | Glossary Off
Versions: 1 2 3 4 5 6 7 8 9 10 11 12 13 14 15 16 17 18 19 20 21 22 23 24 25 26 27 28 29 30 31 32 33 34 35 36 37 38 39 40 41 42 43 44 45 46 47 48 49 50

000
ASUS41 KCLE 291100
RWRCLE
OHIO REGIONAL WEATHER ROUNDUP
NATIONAL WEATHER SERVICE WILMINGTON, OH
700 AM EDT SAT AUG 29 2015

NOTE: "FAIR" INDICATES FEW OR NO CLOUDS BELOW 12,000 FEET WITH NO
SIGNIFICANT WEATHER AND/OR OBSTRUCTIONS TO VISIBILITY.

OHZ001>008-015>018-024>027-034-035-043-044-291200-
   NORTHWEST OHIO

CITY           SKY/WX    TMP DP  RH WIND       PRES   REMARKS
DEFIANCE       CLOUDY    62  58  86 CALM      30.12R
FINDLAY        MOCLDY    62  57  83 SE7       30.12S
TOLEDO EXPRESS CLOUDY    60  58  92 CALM      30.12S
TOLEDO EXEC    CLOUDY    62  56  80 SE5       30.13S
LIMA           MOCLDY    64  57  78 S8        30.13R
$$

OHZ009>014-019>023-028>033-038-089-291200-
   NORTHEAST OHIO

CITY           SKY/WX    TMP DP  RH WIND       PRES   REMARKS
CLE-HOPKINS    CLOUDY    59  56  89 CALM      30.17R
CLE-LAKEFRONT  CLOUDY    64  56  75 SE10      30.13R
CUY CO. ARPT     N/A     64  57  77 S8        30.15
LORAIN-ELYRIA  CLOUDY    58  56  93 MISG      30.15R FOG
ASHTABULA      PTCLDY    55  55 100 CALM      30.17R
AKRON-CANTON   MOCLDY    59  54  83 S5        30.17R FOG
WOOSTER        MOCLDY    52  51  97 CALM      30.17S FOG
MANSFIELD      CLOUDY    60  56  86 S6        30.16S
YOUNGSTOWN     MOCLDY    54  53  97 E3        30.17R
$$

OHZ042-051>053-060>062-070>072-077>081-291200-
  SOUTHWEST OHIO

CITY           SKY/WX    TMP DP  RH WIND       PRES   REMARKS
CINC-COVINGTON NOT AVBL
CINC-LUNKEN    MOCLDY    60  60 100 CALM      30.14R
HAMILTON       CLOUDY    63  60  90 CALM      30.13S
DAYTON         NOT AVBL
WRIGHT-PAT AFB PTCLDY    63  60  91 NE2       30.13S
DAYTON GENERAL MOCLDY    64  57  78 S6        30.13R
WILMINGTON     MOCLDY    63  57  81 S5        30.14S
$$

OHZ036-037-039>041-045>050-054>059-063>069-073>076-082>088-291200-
  CENTRAL AND SOUTHEAST OHIO

CITY           SKY/WX    TMP DP  RH WIND       PRES   REMARKS
COLUMBUS       CLOUDY    61  56  83 CALM      30.14S
OSU AIRPORT    CLOUDY    61  57  87 E3        30.15R
BOLTON FIELD   NOT AVBL
RICKENBACK AFB NOT AVBL
NEWARK         MOCLDY    55  54  96 CALM      30.16R
MARION         CLOUDY    60  56  86 CALM      30.15S
LANCASTER      MOCLDY    54  52  93 CALM      30.16R FOG
ZANESVILLE     PTCLDY    54  50  86 CALM      30.16R
NEW PHILLY     PTCLDY    53  52  96 CALM      30.18R
$$


USA.gov is the U.S. government's official web portal to all federal, state and local government web resources and services.